TimeEDT,TemperatureF,Dew PointF,Humidity,Sea Level PressureIn,VisibilityMPH,Wind Direction,Wind SpeedMPH,Gust SpeedMPH,PrecipitationIn,Events,Conditions,WindDirDegrees,DateUTC
12:53 AM,82.9,75.0,77,30.06,10.0,SE,8.1,-,N/A,,Partly Cloudy,130,2013-08-25 04:53:00
1:53 AM,82.9,75.0,77,30.04,10.0,SE,8.1,-,N/A,,Scattered Clouds,140,2013-08-25 05:53:00
2:53 AM,82.9,75.0,77,30.03,10.0,SSE,6.9,-,N/A,,Partly Cloudy,150,2013-08-25 06:53:00
3:53 AM,82.9,75.9,79,30.03,10.0,SE,4.6,-,N/A,,Scattered Clouds,130,2013-08-25 07:53:00
4:53 AM,80.1,77.0,90,30.04,10.0,NNW,5.8,-,N/A,,Scattered Clouds,330,2013-08-25 08:53:00
5:53 AM,79.0,75.9,90,30.07,10.0,NW,3.5,-,N/A,,Partly Cloudy,320,2013-08-25 09:53:00
6:53 AM,79.0,75.9,90,30.08,10.0,NNW,5.8,-,N/A,,Partly Cloudy,330,2013-08-25 10:53:00
7:53 AM,79.0,75.9,90,30.10,10.0,NNW,8.1,-,N/A,,Scattered Clouds,340,2013-08-25 11:53:00
8:53 AM,79.0,75.0,88,30.11,10.0,North,6.9,-,N/A,,Scattered Clouds,350,2013-08-25 12:53:00
9:39 AM,80.6,73.4,79,30.13,10.0,North,10.4,-,N/A,Thunderstorm,Thunderstorm,10,2013-08-25 13:39:00
9:53 AM,80.1,73.9,81,30.13,10.0,North,10.4,-,N/A,Thunderstorm,Thunderstorm,350,2013-08-25 13:53:00
10:17 AM,82.4,75.2,79,30.15,10.0,North,10.4,-,N/A,,Scattered Clouds,10,2013-08-25 14:17:00
10:53 AM,80.1,73.0,79,30.14,10.0,NNE,9.2,-,0.00,Rain,Light Rain,20,2013-08-25 14:53:00
11:02 AM,78.8,71.6,78,30.14,10.0,NE,9.2,-,0.00,Rain,Light Rain,50,2013-08-25 15:02:00
11:39 AM,80.6,71.6,74,30.14,10.0,NE,8.1,-,0.00,,Mostly Cloudy,40,2013-08-25 15:39:00
11:53 AM,82.0,73.0,74,30.14,10.0,NE,5.8,-,0.00,,Mostly Cloudy,40,2013-08-25 15:53:00
12:53 PM,82.9,72.0,69,30.13,10.0,NE,11.5,-,N/A,,Mostly Cloudy,40,2013-08-25 16:53:00
1:53 PM,82.9,73.9,74,30.11,10.0,ENE,12.7,-,N/A,,Mostly Cloudy,70,2013-08-25 17:53:00
2:53 PM,84.0,73.0,69,30.08,10.0,East,9.2,-,N/A,,Mostly Cloudy,80,2013-08-25 18:53:00
3:53 PM,84.9,73.0,67,30.05,10.0,East,9.2,17.3,N/A,,Mostly Cloudy,90,2013-08-25 19:53:00
4:53 PM,84.0,73.9,72,30.06,10.0,ENE,11.5,-,N/A,,Mostly Cloudy,60,2013-08-25 20:53:00
5:53 PM,82.9,73.0,72,30.06,10.0,ENE,13.8,-,N/A,,Mostly Cloudy,70,2013-08-25 21:53:00
6:53 PM,82.9,73.0,72,30.06,10.0,East,8.1,-,N/A,,Mostly Cloudy,90,2013-08-25 22:53:00
7:53 PM,82.0,73.9,76,30.07,10.0,East,8.1,-,N/A,,Scattered Clouds,80,2013-08-25 23:53:00
8:53 PM,82.0,73.0,74,30.09,10.0,NE,5.8,-,N/A,,Scattered Clouds,50,2013-08-26 00:53:00
9:53 PM,82.0,73.0,74,30.11,10.0,ENE,9.2,-,N/A,,Partly Cloudy,60,2013-08-26 01:53:00
10:53 PM,82.4,73.4,74,30.11,10.0,ENE,6.9,-,N/A,,Partly Cloudy,60,2013-08-26 02:53:00
11:53 PM,82.0,73.0,74,30.12,10.0,ENE,9.2,-,N/A,,Scattered Clouds,70,2013-08-26 03:53:00